Location: Bühlhof
(48.7849°N, 8.6361°E)
Time: 07:20:16
(UTC+00:00)

DNEPR-1 R/B - Pass Details

Date: 19 January 2026
Orbit: 586 x 1328 km, 64.6° (Epoch: 18 February)

Event Time Altitude Azimuth Distance (km) Brightness Sun altitude
Rises 16:49:14 0° 214° (SW) 2,961 8.1 -7.7°
Reaches altitude 10° 16:51:35 10° 213° (SSW) 1,992 7.1 -8.1°
Maximum altitude 16:55:58 79° 128° (SE) 608 3.5 -8.7°
Drops below altitude 10° 17:00:11 10° 41° (NE) 1,920 5.5 -9.4°
Enters shadow 17:00:21 - 41° (NE) 1,987 5.6 -9.4°
